When you browse on this site, cookies collect data to enhance your experience and personalize the content and advertising you see.
Visit our Privacy Policy to learn more. By continuing to use the site, you agree to this use of cookies and data.
  • En España
  • Lista de países
  • Para 7 días
  • Temperatura del agua
  • Mapa Satelital
  • El tiempo en el mapa
  • Informadores
  • user-avatar
    Iniciar sesión

    Tiempo cada hora Borovkovskiy

    Hoy, 18 Junio, Martes

    Tiempo Temperatura Precipitaciones Viento Presión Humedad
    00:00 +16°C° 0 mm 1 mps 740 mmHg 82%
    01:00 +16°C° 0 mm 1 mps 740 mmHg 84%
    02:00 +16°C° 0 mm 1 mps 740 mmHg 86%
    03:00 +16°C° 0 mm 1 mps 739 mmHg 87%
    04:00 +16°C° 0.1 mm 1 mps 739 mmHg 87%
    05:00 +17°C° 0.1 mm 2 mps 739 mmHg 88%
    06:00 +17°C° 0.1 mm 2 mps 739 mmHg 89%
    07:00 +19°C° 0.2 mm 2 mps 739 mmHg 84%
    08:00 +20°C° 0.2 mm 2 mps 739 mmHg 80%
    09:00 +23°C° 0.2 mm 2 mps 739 mmHg 76%
    10:00 +24°C° 0.5 mm 2 mps 739 mmHg 72%
    11:00 +25°C° 0.5 mm 2 mps 739 mmHg 68%
    12:00 +26°C° 0.5 mm 2 mps 739 mmHg 64%
    13:00 +26°C° 0.4 mm 3 mps 739 mmHg 65%
    14:00 +26°C° 0.4 mm 3 mps 739 mmHg 65%
    15:00 +26°C° 0.4 mm 3 mps 739 mmHg 65%
    16:00 +26°C° 0.3 mm 3 mps 739 mmHg 67%
    17:00 +25°C° 0.3 mm 2 mps 739 mmHg 69%
    18:00 +25°C° 0.3 mm 2 mps 739 mmHg 71%
    19:00 +24°C° 0.1 mm 2 mps 739 mmHg 74%
    20:00 +21°C° 0.1 mm 2 mps 739 mmHg 77%
    21:00 +19°C° 0.1 mm 2 mps 739 mmHg 81%
    22:00 +18°C° 0 mm 3 mps 739 mmHg 83%
    23:00 +17°C° 0 mm 3 mps 740 mmHg 85%

    Mañana, 19 Junio, Miércoles

    Tiempo Temperatura Precipitaciones Viento Presión Humedad
    00:00 +16°C° 0 mm 3 mps 740 mmHg 87%
    01:00 +16°C° 0 mm 3 mps 740 mmHg 88%
    02:00 +14°C° 0 mm 3 mps 740 mmHg 89%
    03:00 +14°C° 0 mm 3 mps 740 mmHg 90%
    04:00 +14°C° 0 mm 3 mps 740 mmHg 88%
    05:00 +14°C° 0 mm 3 mps 741 mmHg 86%
    06:00 +14°C° 0 mm 3 mps 741 mmHg 83%
    07:00 +17°C° 0 mm 3 mps 741 mmHg 79%
    08:00 +19°C° 0 mm 3 mps 741 mmHg 74%
    09:00 +21°C° 0 mm 3 mps 741 mmHg 70%
    10:00 +22°C° 0 mm 3 mps 742 mmHg 65%
    11:00 +24°C° 0 mm 3 mps 742 mmHg 60%
    12:00 +25°C° 0 mm 3 mps 742 mmHg 55%
    13:00 +25°C° 0 mm 3 mps 742 mmHg 54%
    14:00 +26°C° 0 mm 3 mps 742 mmHg 53%
    15:00 +26°C° 0 mm 3 mps 742 mmHg 53%
    16:00 +26°C° 0 mm 2 mps 742 mmHg 55%
    17:00 +26°C° 0 mm 2 mps 741 mmHg 58%
    18:00 +26°C° 0 mm 1 mps 741 mmHg 61%
    19:00 +24°C° 0 mm 1 mps 741 mmHg 65%
    20:00 +22°C° 0 mm 1 mps 741 mmHg 69%
    21:00 +18°C° 0 mm 0 mps 741 mmHg 74%
    22:00 +19°C° 0 mm 1 mps 742 mmHg 75%
    23:00 +19°C° 0 mm 1 mps 742 mmHg 77%

    Pasado mañana, 20 Junio, Jueves

    Tiempo Temperatura Precipitaciones Viento Presión Humedad
    00:00 +18°C° 0 mm 1 mps 742 mmHg 78%
    01:00 +18°C° 0 mm 1 mps 742 mmHg 80%
    02:00 +16°C° 0 mm 1 mps 742 mmHg 81%
    03:00 +16°C° 0 mm 1 mps 742 mmHg 83%
    04:00 +16°C° 0 mm 1 mps 743 mmHg 82%
    05:00 +18°C° 0 mm 1 mps 743 mmHg 82%
    06:00 +19°C° 0 mm 1 mps 743 mmHg 81%
    07:00 +20°C° 0 mm 1 mps 743 mmHg 76%
    08:00 +22°C° 0 mm 1 mps 743 mmHg 71%
    09:00 +24°C° 0 mm 1 mps 743 mmHg 66%
    10:00 +25°C° 0 mm 1 mps 743 mmHg 60%
    11:00 +26°C° 0 mm 1 mps 743 mmHg 55%
    12:00 +25°C° 0 mm 0 mps 743 mmHg 50%
    13:00 +25°C° 0 mm 0 mps 743 mmHg 49%
    14:00 +28°C° 0 mm 1 mps 743 mmHg 47%
    15:00 +28°C° 0 mm 1 mps 743 mmHg 46%
    16:00 +27°C° 0 mm 1 mps 743 mmHg 50%
    17:00 +27°C° 0 mm 1 mps 742 mmHg 55%
    18:00 +27°C° 0 mm 1 mps 742 mmHg 59%
    19:00 +25°C° 0 mm 1 mps 742 mmHg 61%
    20:00 +23°C° 0 mm 1 mps 742 mmHg 63%
    21:00 +21°C° 0 mm 1 mps 742 mmHg 66%
    22:00 +20°C° 0 mm 1 mps 742 mmHg 68%
    23:00 +20°C° 0 mm 1 mps 743 mmHg 71%

    21 Junio, Viernes

    Tiempo Temperatura Precipitaciones Viento Presión Humedad
    00:00 +19°C° 0 mm 1 mps 743 mmHg 73%
    01:00 +18°C° 0 mm 1 mps 743 mmHg 75%
    02:00 +18°C° 0 mm 1 mps 743 mmHg 77%
    03:00 +18°C° 0 mm 1 mps 743 mmHg 79%
    04:00 +18°C° 0 mm 1 mps 743 mmHg 80%
    05:00 +19°C° 0 mm 1 mps 743 mmHg 80%
    06:00 +20°C° 0 mm 1 mps 743 mmHg 81%
    07:00 +22°C° 0 mm 1 mps 744 mmHg 77%
    08:00 +23°C° 0 mm 1 mps 744 mmHg 72%
    09:00 +25°C° 0 mm 1 mps 744 mmHg 68%
    10:00 +25°C° 0 mm 2 mps 744 mmHg 64%
    11:00 +26°C° 0 mm 2 mps 744 mmHg 60%
    12:00 +27°C° 0 mm 3 mps 744 mmHg 56%
    13:00 +27°C° 0 mm 3 mps 744 mmHg 56%
    14:00 +27°C° 0 mm 3 mps 743 mmHg 56%
    15:00 +27°C° 0 mm 3 mps 743 mmHg 56%
    16:00 +27°C° 0 mm 3 mps 743 mmHg 60%
    17:00 +27°C° 0 mm 2 mps 743 mmHg 63%
    18:00 +27°C° 0 mm 2 mps 743 mmHg 67%
    19:00 +25°C° 0 mm 2 mps 743 mmHg 70%
    20:00 +23°C° 0 mm 2 mps 743 mmHg 74%
    21:00 +22°C° 0 mm 1 mps 743 mmHg 78%
    22:00 +20°C° 0 mm 2 mps 743 mmHg 79%
    23:00 +19°C° 0 mm 2 mps 743 mmHg 81%

    22 Junio, Sábado

    Tiempo Temperatura Precipitaciones Viento Presión Humedad
    00:00 +19°C° 0 mm 2 mps 743 mmHg 83%
    01:00 +19°C° 0 mm 2 mps 743 mmHg 83%
    02:00 +18°C° 0 mm 2 mps 743 mmHg 84%
    03:00 +18°C° 0 mm 2 mps 743 mmHg 84%
    04:00 +18°C° 0 mm 3 mps 743 mmHg 84%
    05:00 +19°C° 0 mm 3 mps 743 mmHg 84%
    06:00 +19°C° 0 mm 3 mps 743 mmHg 84%
    07:00 +21°C° 0 mm 3 mps 743 mmHg 80%
    08:00 +22°C° 0 mm 3 mps 743 mmHg 76%
    09:00 +25°C° 0 mm 4 mps 743 mmHg 73%
    10:00 +26°C° 0 mm 4 mps 743 mmHg 69%
    11:00 +27°C° 0 mm 4 mps 743 mmHg 66%
    12:00 +28°C° 0 mm 5 mps 743 mmHg 62%
    13:00 +28°C° 0 mm 5 mps 743 mmHg 61%
    14:00 +28°C° 0 mm 5 mps 742 mmHg 61%
    15:00 +28°C° 0 mm 5 mps 742 mmHg 60%
    16:00 +28°C° 0 mm 5 mps 742 mmHg 64%
    17:00 +28°C° 0 mm 4 mps 742 mmHg 68%
    18:00 +27°C° 0 mm 4 mps 742 mmHg 72%
    19:00 +26°C° 0 mm 4 mps 742 mmHg 75%
    20:00 +25°C° 0 mm 3 mps 742 mmHg 79%
    21:00 +22°C° 0 mm 3 mps 742 mmHg 83%
    22:00 +22°C° 0 mm 3 mps 742 mmHg 84%
    23:00 +21°C° 0 mm 3 mps 742 mmHg 86%

    23 Junio, Domingo

    Tiempo Temperatura Precipitaciones Viento Presión Humedad
    00:00 +20°C° 0 mm 3 mps 742 mmHg 87%
    01:00 +20°C° 0 mm 3 mps 742 mmHg 89%
    02:00 +20°C° 0 mm 3 mps 742 mmHg 90%
    03:00 +19°C° 0 mm 3 mps 742 mmHg 92%
    04:00 +20°C° 0 mm 3 mps 742 mmHg 90%
    05:00 +20°C° 0 mm 3 mps 742 mmHg 89%
    06:00 +21°C° 0 mm 3 mps 743 mmHg 87%
    07:00 +22°C° 0 mm 3 mps 743 mmHg 83%
    08:00 +25°C° 0 mm 3 mps 743 mmHg 78%
    09:00 +26°C° 0 mm 3 mps 743 mmHg 73%
    10:00 +27°C° 0.2 mm 3 mps 743 mmHg 69%
    11:00 +28°C° 0.2 mm 4 mps 743 mmHg 66%
    12:00 +29°C° 0.2 mm 4 mps 743 mmHg 62%
    13:00 +29°C° 0.2 mm 4 mps 743 mmHg 61%
    14:00 +29°C° 0.2 mm 4 mps 743 mmHg 59%
    15:00 +30°C° 0.2 mm 4 mps 743 mmHg 58%
    16:00 +29°C° 0.1 mm 4 mps 742 mmHg 62%
    17:00 +29°C° 0.1 mm 3 mps 742 mmHg 66%
    18:00 +28°C° 0.1 mm 3 mps 742 mmHg 70%
    19:00 +27°C° 0 mm 3 mps 742 mmHg 72%
    20:00 +25°C° 0 mm 2 mps 742 mmHg 75%
    21:00 +24°C° 0 mm 2 mps 742 mmHg 77%
    22:00 +23°C° 0 mm 2 mps 742 mmHg 79%
    23:00 +23°C° 0 mm 2 mps 742 mmHg 81%
    Mostrar más